Regional Weather Roundup
Issued by NWS

Home | Current Version | Previous Version | Graphics & Text | Print | Product List | Glossary On
Versions: 1 2 3 4 5 6 7 8 9 10 11 12 13 14 15 16 17 18 19 20 21 22 23 24 25 26 27 28 29 30 31 32 33 34 35 36 37 38 39 40 41 42 43 44 45 46 47 48 49 50
000
ASUS43 KLOT 180200
RWRIL

ILLINOIS REGIONAL WEATHER ROUNDUP
NATIONAL WEATHER SERVICE CHICAGO/ROMEOVILLE IL
900 PM CDT THU APR 17 2014

NOTE: "FAIR" INDICATES FEW OR NO CLOUDS BELOW 12,000 FEET WITH NO
SIGNIFICANT WEATHER AND/OR OBSTRUCTIONS TO VISIBILITY.

* THESE STATIONS ARE NOT UNDER NWS QUALITY CONTROL. THEY ALSO MAY NOT
  REPORT WEATHER SUCH AS PRECIPITATION OR FOG.

ILZ001-002-007-009-015-016-024-180300-
NORTHWEST ILLINOIS

CITY           SKY/WX    TMP DP  RH WIND       PRES   REMARKS
MOLINE         CLOUDY    46  34  62 SW3       30.27R
STERLING*      CLOUDY    50  37  62 W8        30.26R
$$

ILZ003-004-008-010-011-017-018-180300-
NORTH CENTRAL ILLINOIS

CITY           SKY/WX    TMP DP  RH WIND       PRES   REMARKS
ROCKFORD       CLOUDY    50  37  61 SW3       30.26R
$$

ILZ005-006-012>014-019>023-180300-
NORTHEAST ILLINOIS

CITY           SKY/WX    TMP DP  RH WIND       PRES   REMARKS
CHICAGO-OHARE  CLOUDY    54  37  52 W6        30.24R
CHICAGO-MIDWAY CLOUDY    56  39  53 W8        30.25R
AURORA         CLOUDY    50  39  66 SW5       30.25R
WAUKEGAN       CLOUDY    45  37  73 E5        30.24R
DUPAGE AIRPORT CLOUDY    51  39  63 W6        30.24R
WHEELING       CLOUDY    56  38  50 SW5       30.25R
NORTHERLY ISL    N/A     57  38  48 W6          N/A
$$

LMZ740>746-180300-
SOUTHERN LAKE MICHIGAN

STATION/POSITION SKY/WX   TEMP    WIND        PRES    VSBY  WAVE
                          AIR SEA DIR/SP/G                  HT/PER
                          (F)     (DEG/KT/KT) (MB)    (MI)  (FT/S)
WAUKEGAN HARBOR            46      20/  2/  3 1025.4S
HARRISON CRIB              57     280/ 11/ 12   N/A
BURNHAM HARBOR             56     250/  7/  9   N/A
CALUMET HARBOR             57     250/  4/  8 1024.5R
MICHIGAN CITY              50     150/  1/  1   N/A
$$

ILZ025>027-034>036-040-047-049-050-058-095>099-180300-
WEST-CENTRAL ILLINOIS

CITY           SKY/WX    TMP DP  RH WIND       PRES   REMARKS
QUINCY         CLOUDY    47  39  74 NW6       30.28R
$$

ILZ028>032-037-038-041>044-048-051>054-059>061-180300-
CENTRAL ILLINOIS

CITY           SKY/WX    TMP DP  RH WIND       PRES   REMARKS
DECATUR        CLOUDY    55  39  54 NW7       30.26R
PEORIA         CLOUDY    51  36  56 NW5       30.27S
SPRINGFIELD    CLOUDY    54  38  54 NW7       30.26R
TAYLORVILLE    NOT AVBL
$$

ILZ033-039-045-046-055>057-062-063-180300-
EAST-CENTRAL ILLINOIS

CITY           SKY/WX    TMP DP  RH WIND       PRES   REMARKS
CHAMPAIGN      CLOUDY    52  41  66 NW8       30.25S
MATTOON        CLOUDY    55  41  59 CALM      30.24R
$$

ILZ079-100>102-180300-
SOUTHWEST ILLINOIS

CITY           SKY/WX    TMP DP  RH WIND       PRES   REMARKS
ALTON          CLEAR     55  37  50 NW12      30.25R
BELLEVILLE     CLOUDY    58  42  55 N2        30.23R
CAHOKIA*       MOCLDY    57  41  55 N6        30.24R
$$

ILZ064>066-069>071-074>076-080>082-084>086-088>090-092>094-180300-
SOUTH-CENTRAL ILLINOIS

CITY           SKY/WX    TMP DP  RH WIND       PRES   REMARKS
CARBONDALE     PTCLDY    54  40  59 CALM      30.24R
MT. VERNON     PTCLDY    48  34  57 CALM      30.25R
$$

ILZ067-068-072-073-078-083-087-091-180300-
SOUTHEAST ILLINOIS

CITY           SKY/WX    TMP DP  RH WIND       PRES   REMARKS
$$

ABBREVIATIONS USED IN REMARKS
   TC - TEMPERATURE IN CELSIUS
  WCI - WIND CHILL INDEX
   HX - HEAT INDEX
  VSB - VISIBILITY
$$




USA.gov is the U.S. government's official web portal to all federal, state and local government web resources and services.